Location: *
(29.1167°S, 130.0000°E)
Time: 23:10:02
(UTC+00:00)

ATLAS 2A CENTAUR R/B - Pass Details

Date: 21 July 2019
Orbit: 236 x 16127 km, 26.9° (Epoch: 24 August)

Event Time Altitude Azimuth Distance (km) Brightness Sun altitude
Rises 08:13:43 0° 273° (W) 2,747 6.8 4.9°
Reaches altitude 10° 08:15:03 10° 274° (W) 2,185 6.4 4.6°
Maximum altitude 08:19:43 77° 360° (N) 1,420 4.1 3.7°
Drops below altitude 10° 08:43:44 10° 82° (E) 9,686 7.6 -1.1°
Sets 09:01:54 0° 81° (E) 14,329 8.4 -4.8°
